Modesto, CA

2:40 AM PDT on June 25, 2017 (GMT -0700)
Modesto City-County-Sham

Weather History for KMOD - September, 2013

Change the Weather History Date:

Tuesday, September 10, 2013

  Actual Average Record
Temperature  
Mean Temperature 79 °F -  
Max Temperature 94 °F 90 °F 106 °F (2015)
Min Temperature 63 °F 60 °F 44 °F (1931)
Degree Days  
Heating Degree Days 0 0  
Month to date heating degree days 0 0  
Since 1 July heating degree days 0 0  
Cooling Degree Days 14 10  
Month to date cooling degree days 135 108  
Year to date cooling degree days 1607 1444  
Growing Degree Days 28 (Base 50)    
Moisture  
Dew Point 53 °F    
Average Humidity 51    
Maximum Humidity 78    
Minimum Humidity 23    
Precipitation  
Precipitation 0.00 in 0.00 in 0.04 in (1978)
Month to date precipitation 0.00 0.03  
Year to date precipitation 3.21 8.80  
Since 1 July precipitation 0.00  
Snow  
Snow 0.00 in - - ()
Month to date snowfall 0.0  
Since 1 July snowfall 0.0  
Since 1 September snowfall 0.0  
Snow Depth -    
Sea Level Pressure  
Sea Level Pressure 29.74 in    
Wind  
Wind Speed 3 mph (NNW)    
Max Wind Speed 13 mph    
Max Gust Speed 20 mph    
Visibility 10 miles    
Events      
T = Trace of Precipitation, MM = Missing Value Source: NWS Daily Summary

Daily Weather History Graph

Daily Weather History Graph

Search for Another Location

Airport or City:

Trip Planner

Search our weather history database for the weather conditions in past years. The results will help you decide how hot, cold, wet, or windy it might be!

Date:

Astronomy

Sep. 10, 2013 Rise Set
Actual Time 6:41 AM PDT 7:18 PM PDT
Civil Twilight 6:15 AM PDT 7:45 PM PDT
Nautical Twilight 5:44 AM PDT 8:16 PM PDT
Astronomical Twilight 5:12 AM PDT 8:48 PM PDT
Moon 12:06 PM PDT (9/10) 10:33 PM PDT (9/10)
Length of Visible Light 13h 29m
Length of Day
12h 36m
Waxing Crescent, 29% of the Moon is Illuminated
Sep 10
Waxing Crescent
Sep 12
First Quarter
Sep 19
Full
Sep 26
Last Quarter
Oct 4
New

Hourly Weather History & Observations

Time (PDT) Temp. Heat Index Dew Point Humidity Pressure Visibility Wind Dir Wind Speed Gust Speed Precip Events Conditions
12:53 AM 73.0 °F - 46.9 °F 39% 29.66 in 10.0 mi Calm Calm - N/A   Clear
1:53 AM 70.0 °F - 50.0 °F 49% 29.67 in 10.0 mi SE 3.5 mph - N/A   Clear
2:53 AM 70.0 °F - 50.0 °F 49% 29.68 in 10.0 mi Calm Calm - N/A   Clear
3:53 AM 68.0 °F - 52.0 °F 56% 29.68 in 10.0 mi Calm Calm - N/A   Clear
4:53 AM 64.9 °F - 53.1 °F 65% 29.68 in 10.0 mi Calm Calm - N/A   Clear
5:53 AM 64.0 °F - 53.1 °F 67% 29.69 in 10.0 mi Calm Calm - N/A   Clear
6:53 AM 63.0 °F - 55.0 °F 75% 29.71 in 10.0 mi Calm Calm - N/A   Clear
7:53 AM 66.9 °F - 55.0 °F 66% 29.73 in 10.0 mi Calm Calm - N/A   Clear
8:53 AM 73.9 °F - 51.1 °F 45% 29.75 in 10.0 mi North 3.5 mph - N/A   Clear
9:53 AM 77.0 °F - 52.0 °F 42% 29.76 in 10.0 mi NW 4.6 mph - N/A   Clear
10:53 AM 82.9 °F 81.8 °F 53.1 °F 36% 29.76 in 10.0 mi Variable 3.5 mph - N/A   Clear
11:53 AM 86.0 °F - 52.0 °F 31% 29.76 in 10.0 mi Variable 3.5 mph - N/A   Clear
12:53 PM 88.0 °F - 50.0 °F 27% 29.75 in 10.0 mi Variable 3.5 mph - N/A   Clear
1:53 PM 91.9 °F - 48.9 °F 23% 29.74 in 10.0 mi NW 9.2 mph - N/A   Clear
2:53 PM 91.0 °F 88.5 °F 53.1 °F 27% 29.73 in 10.0 mi NW 5.8 mph - N/A   Clear
3:53 PM 93.0 °F - 51.1 °F 24% 29.71 in 10.0 mi NW 9.2 mph - N/A   Clear
4:53 PM 93.0 °F - 51.1 °F 24% 29.71 in 10.0 mi NW 8.1 mph - N/A   Clear
5:53 PM 90.0 °F 88.1 °F 55.9 °F 31% 29.73 in 10.0 mi WNW 9.2 mph - N/A   Clear
6:53 PM 84.9 °F 84.2 °F 57.9 °F 40% 29.75 in 10.0 mi NNW 11.5 mph - N/A   Clear
7:53 PM 80.1 °F 80.6 °F 57.9 °F 47% 29.77 in 10.0 mi NNW 11.5 mph - N/A   Clear
8:53 PM 75.0 °F - 57.0 °F 53% 29.79 in 10.0 mi North 11.5 mph - N/A   Clear
9:53 PM 71.1 °F - 57.0 °F 61% 29.81 in 10.0 mi NNW 10.4 mph - N/A   Clear
10:53 PM 68.0 °F - 57.9 °F 70% 29.83 in 10.0 mi North 10.4 mph - N/A   Clear
11:53 PM 66.0 °F - 57.9 °F 75% 29.84 in 10.0 mi North 10.4 mph - N/A   Clear